Weather History for KDBN - January, 2013

Change the Weather History Date:

Tuesday, January 8, 2013

  Actual Average Record
Temperature  
Mean Temperature 52 °F -  
Max Temperature 62 °F 58 °F 80 °F (1946)
Min Temperature 42 °F 34 °F 12 °F (1970)
Degree Days  
Heating Degree Days 13    
Growing Degree Days 2 (Base 50)    
Moisture  
Dew Point 40 °F    
Average Humidity 64    
Maximum Humidity 76    
Minimum Humidity 52    
Precipitation  
Precipitation 0.00 in - - ()
Sea Level Pressure  
Sea Level Pressure 30.35 in    
Wind  
Wind Speed 5 mph (ENE)    
Max Wind Speed 8 mph    
Max Gust Speed -    
Visibility 10 miles    
Events      
Averages and records for this station are not official NWS values.
T = Trace of Precipitation, MM = Missing Value Source: NWS Daily Summary

Daily Weather History Graph

Daily Weather History Graph

Search for Another Location

Airport or City:

Trip Planner

Search our weather history database for the weather conditions in past years. The results will help you decide how hot, cold, wet, or windy it might be!

Date:

Astronomy

Jan. 08, 2013 Rise Set
Actual Time 7:34 AM EST 5:43 PM EST
Civil Twilight 7:07 AM EST 6:10 PM EST
Nautical Twilight 6:37 AM EST 6:40 PM EST
Astronomical Twilight 6:07 AM EST 7:10 PM EST
Moon 4:07 AM EST (1/8) 2:43 PM EST (1/8)
Length of Visible Light 11h 02m
Length of Day
10h 08m
Waning Crescent, 14% of the Moon is Illuminated
Jan 8
Waning Crescent
Jan 11
New
Jan 18
First Quarter
Jan 26
Full
Feb 3
Last Quarter

Hourly Weather History & Observations

Time (EST) Temp. Windchill Dew Point Humidity Pressure Visibility Wind Dir Wind Speed Gust Speed Precip Events Conditions
12:15 AM 42.8 °F 40.1 °F 33.8 °F 70% 30.36 in 10.0 mi ENE 4.6 mph - N/A   Overcast
12:35 AM 42.8 °F 40.1 °F 35.6 °F 76% 30.35 in 10.0 mi NE 4.6 mph - N/A   Overcast
12:55 AM 42.8 °F 40.1 °F 33.8 °F 70% 30.34 in 10.0 mi ENE 4.6 mph - N/A   Overcast
1:15 AM 42.8 °F 41.1 °F 33.8 °F 70% 30.34 in 10.0 mi ENE 3.5 mph - N/A   Overcast
1:35 AM 42.8 °F - 33.8 °F 70% 30.34 in 10.0 mi Calm Calm - N/A   Overcast
1:55 AM 42.8 °F 41.1 °F 35.6 °F 76% 30.34 in 10.0 mi NE 3.5 mph - N/A   Overcast
2:15 AM 42.8 °F 40.1 °F 35.6 °F 76% 30.34 in 10.0 mi ENE 4.6 mph - N/A   Overcast
2:35 AM 44.6 °F 43.1 °F 33.8 °F 66% 30.34 in 10.0 mi ENE 3.5 mph - N/A   Overcast
2:55 AM 42.8 °F 40.1 °F 33.8 °F 70% 30.33 in 10.0 mi ENE 4.6 mph - N/A   Overcast
3:15 AM 44.6 °F 42.2 °F 33.8 °F 66% 30.32 in 10.0 mi ENE 4.6 mph - N/A   Overcast
3:35 AM 44.6 °F 43.1 °F 33.8 °F 66% 30.32 in 10.0 mi ENE 3.5 mph - N/A   Overcast
3:55 AM 44.6 °F 41.4 °F 33.8 °F 66% 30.32 in 10.0 mi NE 5.8 mph - N/A   Overcast
4:15 AM 44.6 °F 42.2 °F 33.8 °F 66% 30.32 in 10.0 mi NE 4.6 mph - N/A   Overcast
4:35 AM 44.6 °F 42.2 °F 33.8 °F 66% 30.32 in 10.0 mi NE 4.6 mph - N/A   Overcast
4:55 AM 44.6 °F 42.2 °F 33.8 °F 66% 30.32 in 10.0 mi NE 4.6 mph - N/A   Overcast
5:15 AM 44.6 °F 43.1 °F 33.8 °F 66% 30.32 in 10.0 mi ENE 3.5 mph - N/A   Overcast
5:35 AM 44.6 °F 43.1 °F 33.8 °F 66% 30.33 in 10.0 mi ENE 3.5 mph - N/A   Overcast
5:55 AM 44.6 °F 42.2 °F 33.8 °F 66% 30.33 in 10.0 mi ENE 4.6 mph - N/A   Overcast
6:15 AM 46.4 °F 42.9 °F 33.8 °F 62% 30.34 in 10.0 mi ENE 6.9 mph - N/A   Overcast
6:35 AM 46.4 °F 43.5 °F 33.8 °F 62% 30.34 in 10.0 mi ENE 5.8 mph - N/A   Overcast
6:55 AM 46.4 °F 42.4 °F 33.8 °F 62% 30.35 in 10.0 mi ENE 8.1 mph - N/A   Overcast
7:15 AM 46.4 °F 43.5 °F 33.8 °F 62% 30.35 in 10.0 mi ENE 5.8 mph - N/A   Overcast
7:35 AM 46.4 °F 44.3 °F 33.8 °F 62% 30.35 in 10.0 mi East 4.6 mph - N/A   Overcast
7:55 AM 46.4 °F 42.9 °F 33.8 °F 62% 30.36 in 10.0 mi East 6.9 mph - N/A   Overcast
8:35 AM 46.4 °F 43.5 °F 33.8 °F 62% 30.38 in 10.0 mi ENE 5.8 mph - N/A   Overcast
8:55 AM 48.2 °F - 35.6 °F 62% 30.38 in 10.0 mi ENE 6.9 mph - N/A   Overcast
9:15 AM 48.2 °F - 35.6 °F 62% 30.39 in 10.0 mi ENE 5.8 mph - N/A   Overcast
9:35 AM 48.2 °F - 35.6 °F 62% 30.40 in 10.0 mi East 6.9 mph - N/A   Overcast
9:55 AM 50.0 °F - 37.4 °F 62% 30.40 in 10.0 mi ENE 8.1 mph - N/A   Overcast
10:15 AM 50.0 °F - 37.4 °F 62% 30.41 in 10.0 mi East 8.1 mph - N/A   Overcast
10:35 AM 51.8 °F - 37.4 °F 58% 30.41 in 10.0 mi NE 6.9 mph - N/A   Overcast
10:55 AM 51.8 °F - 39.2 °F 62% 30.40 in 10.0 mi ENE 5.8 mph - N/A   Overcast
11:15 AM 51.8 °F - 39.2 °F 62% 30.39 in 10.0 mi East 3.5 mph - N/A   Overcast
11:35 AM 51.8 °F - 39.2 °F 62% 30.39 in 10.0 mi NE 5.8 mph - N/A   Overcast
11:55 AM 53.6 °F - 41.0 °F 62% 30.38 in 10.0 mi ENE 5.8 mph - N/A   Overcast
12:15 PM 53.6 °F - 41.0 °F 62% 30.38 in 10.0 mi NE 5.8 mph - N/A   Overcast
12:35 PM 53.6 °F - 41.0 °F 62% 30.37 in 10.0 mi ENE 4.6 mph - N/A   Overcast
12:55 PM 55.4 °F - 41.0 °F 58% 30.36 in 10.0 mi East 5.8 mph - N/A   Overcast
1:15 PM 55.4 °F - 42.8 °F 63% 30.35 in 10.0 mi East 5.8 mph - N/A   Overcast
1:35 PM 59.0 °F - 42.8 °F 55% 30.34 in 10.0 mi East 6.9 mph - N/A   Overcast
1:55 PM 59.0 °F - 42.8 °F 55% 30.33 in 10.0 mi ENE 8.1 mph - N/A   Overcast
2:15 PM 60.8 °F - 42.8 °F 52% 30.31 in 10.0 mi East 8.1 mph - N/A   Mostly Cloudy
2:35 PM 59.0 °F - 44.6 °F 59% 30.31 in 10.0 mi ENE 5.8 mph - N/A   Mostly Cloudy
2:55 PM 59.0 °F - 44.6 °F 59% 30.30 in 10.0 mi ENE 4.6 mph - N/A   Scattered Clouds
3:15 PM 60.8 °F - 44.6 °F 55% 30.31 in 10.0 mi East 6.9 mph - N/A   Clear
3:35 PM 60.8 °F - 44.6 °F 55% 30.30 in 10.0 mi East 8.1 mph - N/A   Clear
3:55 PM 62.6 °F - 44.6 °F 52% 30.30 in 10.0 mi East 6.9 mph - N/A   Mostly Cloudy
4:15 PM 60.8 °F - 44.6 °F 55% 30.31 in 10.0 mi NE 5.8 mph - N/A   Overcast
4:35 PM 60.8 °F - 46.4 °F 59% 30.31 in 10.0 mi NNE 3.5 mph - N/A   Overcast
4:55 PM 60.8 °F - 46.4 °F 59% 30.31 in 10.0 mi ENE 4.6 mph - N/A   Overcast
5:15 PM 60.8 °F - 44.6 °F 55% 30.32 in 10.0 mi NNE 3.5 mph - N/A   Overcast
5:35 PM 59.0 °F - 44.6 °F 59% 30.33 in 10.0 mi NNE 4.6 mph - N/A   Overcast
5:55 PM 59.0 °F - 44.6 °F 59% 30.34 in 10.0 mi NE 8.1 mph - N/A   Overcast
6:15 PM 59.0 °F - 44.6 °F 59% 30.34 in 10.0 mi NE 4.6 mph - N/A   Overcast
6:35 PM 57.2 °F - 44.6 °F 63% 30.34 in 10.0 mi NNE 3.5 mph - N/A   Overcast
6:55 PM 55.4 °F - 44.6 °F 67% 30.35 in 10.0 mi NE 6.9 mph - N/A   Overcast
7:35 PM 55.4 °F - 44.6 °F 67% 30.35 in 10.0 mi NE 5.8 mph - N/A   Overcast
7:55 PM 55.4 °F - 44.6 °F 67% 30.36 in 10.0 mi ENE 4.6 mph - N/A   Overcast
8:15 PM 55.4 °F - 44.6 °F 67% 30.36 in 10.0 mi NE 4.6 mph - N/A   Overcast
8:35 PM 55.4 °F - 44.6 °F 67% 30.36 in 10.0 mi NE 4.6 mph - N/A   Overcast
8:55 PM 55.4 °F - 44.6 °F 67% 30.36 in 10.0 mi NE 5.8 mph - N/A   Overcast
9:15 PM 55.4 °F - 44.6 °F 67% 30.36 in 10.0 mi NE 5.8 mph - N/A   Overcast
9:35 PM 55.4 °F - 44.6 °F 67% 30.36 in 10.0 mi NE 4.6 mph - N/A   Overcast
9:55 PM 55.4 °F - 44.6 °F 67% 30.37 in 10.0 mi NE 5.8 mph - N/A   Overcast
10:15 PM 55.4 °F - 44.6 °F 67% 30.37 in 10.0 mi NE 3.5 mph - N/A   Overcast
10:35 PM 55.4 °F - 44.6 °F 67% 30.36 in 10.0 mi NE 5.8 mph - N/A   Overcast
10:55 PM 55.4 °F - 44.6 °F 67% 30.36 in 10.0 mi NE 5.8 mph - N/A   Overcast
11:15 PM 53.6 °F - 44.6 °F 72% 30.36 in 10.0 mi ENE 4.6 mph - N/A   Overcast
11:35 PM 53.6 °F - 42.8 °F 67% 30.36 in 10.0 mi NE 5.8 mph - N/A   Overcast
11:55 PM 53.6 °F - 44.6 °F 72% 30.35 in 10.0 mi NE 5.8 mph - N/A   Mostly Cloudy